User: anonymous   Login
Location: ????????
(37.9452°N, 23.1472°E)
Time: 07:24:54
(UTC+00:00)
Language:

SL-16 R/B - Orbit

View from above orbital plane
View from above orbital plane
View from above satellite
View from above satellite

Ground track
Ground track

The orbit data is extracted from the following two-line orbital elements,

1 31793U 07029B   24174.12041372  .00000097  00000-0  75380-4 0  9992
2 31793  70.9771  47.2078 0002491 263.8361 207.9564 14.14640006876986
Epoch (UTC): 22 June 2024 02:53:23
Eccentricity: 0.0002491
inclination: 70.9771°
perigee height: 842 km
apogee height: 845 km
right ascension of ascending node: 47.2078°
argument of perigee: 263.8361°
revolutions per day: 14.14640006
mean anomaly at epoch: 207.9564°
orbit number at epoch: 87698

The dashed part of the orbit path shows where the satellite is in the earth's shadow,  

DLR